SCP
0 1 1 1 0 0 0 0 0 0 0 0 0 0 0 0 0 0 0 0 0 0 0 0 0 0 0 0 0 0 0 0 0 0 0 0 0 0
0 0 1 0 0 0 0 0 0 0 0 0 0 0 0 0 0 0 0 0 0 0 0 0 0 0 0 0 0 0 0 0 0 0 0 0 0 0
0 0 0 0 0 0 0 0 0 0 0 0 0 0 0 0 0 0 0 0 0 0 0 0 0 0 0 0 0 0 0 0 0 0 0 0 0 0
0 0 0 0 0 0 0 0 0 0 0 0 0 0 0 0 0 0 0 0 0 0 0 0 0 0 0 0 0 0 0 0 0 0 0 0 0 0
0 0 0 0 0 0 0 0 0 0 0 0 0 0 0 0 0 0 0 0 0 0 0 0 0 0 0 0 0 0 0 0 0 0 0 0 0 0
0 0 0 0 0 0 0 0 0 0 0 0 0 0 0 0 0 0 0 0 0 0 0 0 0 0 0 0 0 0 0 0 0 0 0 0 0 0
-0 0 0 0 0 0 0 0 0 0 0 0 0 0 0 0 0 0 0 0 0 0 0 0 0 0 0 0 0 0 0 0 0 0 0 0 0 0
-0 0 0 0 0 0 0 0 0 0 0 0 0 0 0 0 0 0 0 0 0 0 0 0 0 0 0 0 0 0 0 0 0 0 0 0 0 0
-0 0 0 0 0 0 0 0 0 0 0 0 0 0 0 0 0 0 0 0 0 0 0 0 0 0 0 0 0 0 0 0 0 0 0 0 0 0
0 0 0 0 0 0 0 0 0 0 0 0 0 0 0 0 0 0 0 0 0 0 0 0 0 0 0 0 0 0 0 0 0 0 0 0 0 0
0 0 0 0 0 0 0 0 0 0 0 0 0 0 0 0 0 0 0 0 0 0 0 0 0 0 0 0 0 0 0 0 0 0 0 0 0 0
0 0 0 0 0 -0 -0 -0 0 0 0 0 0 0 0 0 0 0 0 0 0 0 0 0 0 0 0 0 0 0 0 0 0 0 0 0 0 0
0 -0 -0 -0 -0 -0 0 0 0 0 0 0 0 0 0 0 0 0 0 0 0 0 0 0 0 0 0 0 0 0 0 0 0 0 0 0 0 0
0 -0 -0 -0 0 0 0 0 0 0 0 0 0 0 0 0 0 0 0 0 0 0 0 0 0 0 0 0 0 0 0 0 0 0 0 0 -0 -0
0 -0 0 0 0 0 0 0 0 0 0 0 0 0 0 0 0 0 0 0 0 0 0 0 0 0 0 0 0 0 0 0 0 0 0 0 0 0
-0 0 0 0 0 0 0 0 0 0 0 0 0 0 0 0 0 0 0 0 0 0 0 0 0 0 0 0 0 0 0 0 0 0 0 0 0 0
0 0 0 0 0 0 0 0 0 0 0 0 0 0 0 0 0 0 0 0 0 0 0 0 0 0 0 0 0 0 0 0 0 0 0 0 0 0
0 0 0 0 0 0 0 0 0 0 0 0 0 0 0 0 0 0 0 0 0 0 0 0 0 0 0 0 0 0 0 0 0 0 0 0 0 0
0 0 0 0 0 0 0 0 0 0 -0 0 0 0 0 0 0 0 0 0 0 0 0 0 -0 0 0 0 0 0 0 0 0 0 0 0 0 0
0 0 0 0 0 0 0 0 0 0 -0 0 0 0 0 0 0 0 0 0 0 0 0 -0 -0 0 0 0 0 0 0 0 0 0 0 0 0 0
0 0 0 0 0 0 0 0 0 0 -0 -0 0 0 0 0 0 0 0 0 0 0 -0 -0 0 0 0 0 0 0 0 -0 0 0 0 -0 0 0
0 0 0 0 0 0 0 0 0 0 0 -0 0 0 0 0 0 0 0 0 0 -0 0 0 0 0 0 0 0 0 0 0 -0 -0 0 0 0 0
0 0 0 0 0 0 0 0 0 -0 0 0 0 0 0 0 0 0 0 0 0 0 0 0 0 0 0 0 0 0 -0 0 0 0 0 0 0 0
Wind_Speed_500mb
65 72 75 74 75 76 89 89 71 42 52 96 91 89 69 67 79 75 75 75 72 64 54 47 42 43 41 43 44 44 42 42 42 39 41 41 43 44
62 68 75 76 79 80 74 75 88 88 81 86 51 70 89 87 66 74 80 73 61 53 53 45 46 46 45 46 46 46 44 41 43 40 40 40 43 44
59 67 75 82 80 85 78 81 97 86 95 103 96 88 82 105 68 61 58 55 51 45 44 45 45 42 43 42 46 43 42 40 39 41 39 41 41 38
81 83 80 83 90 90 97 100 102 99 95 105 95 88 102 86 59 62 59 51 49 49 47 46 44 41 39 40 39 39 37 39 37 39 39 38 33 33
78 75 84 82 96 94 95 99 104 99 96 84 76 65 70 88 65 60 48 48 47 42 40 43 40 36 34 34 31 32 31 29 37 39 34 28 28 31
93 96 93 83 93 92 91 86 86 89 79 70 73 62 49 48 53 50 46 44 42 40 45 45 42 40 31 34 35 35 31 28 26 31 28 24 26 27
96 80 85 83 83 76 67 78 74 60 66 74 83 62 55 44 47 43 40 33 35 37 34 36 40 35 33 33 37 38 37 34 35 34 31 27 25 25
91 86 64 68 57 57 52 58 47 46 60 63 66 66 60 51 45 44 37 36 44 42 38 42 45 45 41 42 42 40 37 39 42 39 38 31 25 25
71 56 49 57 56 51 40 49 40 32 35 41 46 52 55 47 41 40 44 47 49 40 40 48 48 48 41 39 40 39 36 30 39 39 37 31 27 26
24 45 49 53 60 55 59 63 39 37 38 35 31 37 34 36 34 37 39 39 41 39 41 45 40 36 35 38 37 36 37 25 26 32 34 32 29 27
20 20 31 33 40 47 40 42 46 40 39 34 30 27 25 23 26 30 31 34 38 40 40 42 37 30 31 32 29 27 36 36 28 29 32 31 31 30
28 37 30 30 37 42 52 54 46 36 27 21 17 15 15 21 28 31 33 40 36 37 35 33 24 19 14 32 38 36 44 37 34 27 30 31 30 29
15 31 41 44 48 49 46 36 32 23 15 10 9 6 10 15 19 22 26 30 30 36 15 19 20 26 28 20 20 35 47 49 39 34 38 32 28 25
35 25 50 51 46 45 35 25 17 11 8 11 10 10 5 3 4 6 7 6 9 9 17 33 36 33 30 38 38 45 45 39 36 39 37 35 30 26
34 51 50 43 43 39 27 16 13 10 10 14 12 7 4 1 7 7 12 15 20 24 31 37 40 38 33 27 23 54 48 39 34 40 43 40 36 32
47 54 50 45 38 31 21 10 15 5 5 8 12 6 1 4 2 6 15 19 20 23 23 29 34 37 37 43 28 46 48 36 40 41 45 41 35 31
51 53 49 43 40 32 16 5 7 5 3 4 9 11 11 3 5 7 10 13 18 17 17 24 28 36 47 50 57 58 53 49 51 49 46 47 41 37
52 47 47 43 35 22 6 3 6 6 4 5 7 8 15 9 4 1 2 11 12 14 17 20 20 25 38 48 62 62 55 58 58 52 48 48 45 39
44 47 43 34 23 16 11 13 8 9 9 13 9 9 12 9 9 5 6 11 11 15 18 22 19 19 32 47 44 54 63 62 62 59 49 41 44 40
42 42 35 27 20 20 23 17 6 11 19 15 10 10 8 10 12 7 7 10 19 13 12 27 17 21 39 53 58 55 61 62 58 54 53 48 45 40
47 38 35 27 27 29 23 16 3 8 17 14 6 7 6 7 9 11 5 6 12 8 13 31 27 21 48 58 59 59 58 63 53 46 54 52 49 41
42 48 42 33 34 32 26 17 12 8 9 12 13 12 10 10 12 15 10 15 18 19 13 17 24 24 55 60 61 62 61 56 52 51 49 28 24 21
41 40 44 42 41 34 27 21 18 17 18 22 29 20 17 14 11 12 16 16 14 26 30 31 30 45 54 59 70 66 54 50 49 47 31 24 14 9
Wind_Direction_500mb
283 278 277 270 257 253 263 247 235 258 287 280 262 253 250 271 263 256 252 253 255 261 251 247 253 268 282 294 296 291 289 281 264 256 255 251 248 245
285 280 272 267 262 258 257 243 234 261 241 239 239 248 227 253 261 255 255 257 251 239 247 247 256 266 277 282 286 292 289 275 262 253 249 250 245 243
296 288 279 269 260 251 248 250 249 246 241 249 252 252 247 242 252 252 241 241 240 237 236 249 259 267 273 281 287 285 284 270 255 250 248 246 242 236
301 292 279 272 259 255 255 253 251 241 244 247 252 254 243 228 237 233 243 235 235 236 242 249 253 262 273 279 281 278 282 266 250 250 242 238 237 240
299 288 280 272 261 254 250 249 250 251 249 246 237 235 233 221 228 232 229 229 234 239 242 244 249 251 262 264 273 275 278 278 247 247 230 222 240 251
300 286 281 266 257 253 252 252 247 241 238 226 219 221 207 228 213 218 217 220 232 241 244 243 244 248 249 243 259 277 271 265 254 231 225 234 249 244
305 291 273 260 255 251 248 239 232 227 214 215 212 219 218 211 210 213 219 232 239 236 236 242 241 246 247 254 263 266 260 268 252 245 241 239 233 230
295 286 263 253 241 231 228 237 211 199 204 205 202 202 221 218 212 218 227 232 240 237 239 243 250 252 255 259 260 258 262 260 246 240 235 225 216 215
294 272 250 230 210 204 230 195 182 200 203 199 204 218 216 211 222 235 240 243 249 250 248 251 249 256 260 257 253 252 254 258 234 226 215 204 201 197
284 239 230 211 208 213 196 181 191 176 195 204 208 207 205 212 221 230 234 241 247 245 249 253 253 261 262 257 244 246 242 225 206 201 200 193 185 186
1 134 155 168 173 183 198 150 161 162 168 167 174 181 187 203 222 231 236 243 248 249 240 251 262 262 260 248 239 235 224 218 206 188 191 184 182 183
49 91 112 128 135 149 153 162 153 146 151 159 173 194 219 240 250 254 254 250 251 254 245 238 239 242 244 245 237 228 222 215 205 190 188 191 185 184
105 138 146 150 142 144 144 137 134 132 133 154 177 218 244 262 266 269 262 254 245 238 212 194 219 232 232 239 239 216 206 209 193 198 199 188 181 193
252 198 157 152 151 149 141 124 104 85 88 116 97 56 32 213 225 258 270 292 266 249 218 241 249 245 246 243 240 214 194 199 198 191 179 173 179 186
191 166 162 155 152 149 140 97 49 32 90 87 60 22 38 72 209 241 277 274 255 243 239 236 241 249 237 234 223 178 155 155 168 174 169 173 179 184
199 175 168 162 159 156 151 63 18 60 102 86 40 49 62 87 147 249 245 234 235 245 247 231 232 240 246 239 210 181 167 151 166 166 169 169 176 178
180 171 171 175 168 166 165 6 16 58 93 75 33 28 22 14 285 215 233 235 235 247 227 215 222 236 245 234 218 179 171 163 164 165 167 164 165 163
170 171 168 169 168 174 203 333 82 43 2 348 349 26 359 344 355 89 77 182 227 243 251 237 251 246 188 151 167 174 164 160 163 164 170 163 148 147
171 176 177 180 188 219 222 159 106 43 6 335 328 355 329 341 13 349 274 237 257 286 286 232 220 179 143 146 165 166 163 164 161 158 162 166 158 153
190 190 194 201 214 209 175 166 113 25 9 332 285 292 297 308 315 335 332 251 252 280 273 209 207 210 193 178 159 166 170 162 165 163 161 156 150 151
208 212 205 209 210 189 185 182 236 15 25 32 8 297 281 319 340 337 325 291 241 257 270 205 215 224 162 156 159 158 165 168 169 173 163 163 161 160
215 213 214 213 208 201 205 212 253 306 339 348 345 296 297 298 316 334 296 281 259 211 151 229 226 190 167 165 163 163 163 173 173 169 159 168 156 172
204 202 205 210 209 213 218 235 264 287 297 304 326 298 284 293 307 326 314 280 261 215 200 209 218 180 181 174 166 164 162 157 154 153 151 153 151 169
Wind_Speed_850mb
65 72 75 74 75 76 89 89 71 42 52 96 91 89 69 67 79 75 75 75 72 64 54 47 42 43 41 43 44 44 42 42 42 39 41 41 43 44
62 68 75 76 79 80 74 75 88 88 81 86 51 70 89 87 66 74 80 73 61 53 53 45 46 46 45 46 46 46 44 41 43 40 40 40 43 44
59 67 75 82 80 85 78 81 97 86 95 103 96 88 82 105 68 61 58 55 51 45 44 45 45 42 43 42 46 43 42 40 39 41 39 41 41 38
81 83 80 83 90 90 97 100 102 99 95 105 95 88 102 86 59 62 59 51 49 49 47 46 44 41 39 40 39 39 37 39 37 39 39 38 33 33
78 75 84 82 96 94 95 99 104 99 96 84 76 65 70 88 65 60 48 48 47 42 40 43 40 36 34 34 31 32 31 29 37 39 34 28 28 31
93 96 93 83 93 92 91 86 86 89 79 70 73 62 49 48 53 50 46 44 42 40 45 45 42 40 31 34 35 35 31 28 26 31 28 24 26 27
96 80 85 83 83 76 67 78 74 60 66 74 83 62 55 44 47 43 40 33 35 37 34 36 40 35 33 33 37 38 37 34 35 34 31 27 25 25
91 86 64 68 57 57 52 58 47 46 60 63 66 66 60 51 45 44 37 36 44 42 38 42 45 45 41 42 42 40 37 39 42 39 38 31 25 25
71 56 49 57 56 51 40 49 40 32 35 41 46 52 55 47 41 40 44 47 49 40 40 48 48 48 41 39 40 39 36 30 39 39 37 31 27 26
24 45 49 53 60 55 59 63 39 37 38 35 31 37 34 36 34 37 39 39 41 39 41 45 40 36 35 38 37 36 37 25 26 32 34 32 29 27
20 20 31 33 40 47 40 42 46 40 39 34 30 27 25 23 26 30 31 34 38 40 40 42 37 30 31 32 29 27 36 36 28 29 32 31 31 30
28 37 30 30 37 42 52 54 46 36 27 21 17 15 15 21 28 31 33 40 36 37 35 33 24 19 14 32 38 36 44 37 34 27 30 31 30 29
15 31 41 44 48 49 46 36 32 23 15 10 9 6 10 15 19 22 26 30 30 36 15 19 20 26 28 20 20 35 47 49 39 34 38 32 28 25
35 25 50 51 46 45 35 25 17 11 8 11 10 10 5 3 4 6 7 6 9 9 17 33 36 33 30 38 38 45 45 39 36 39 37 35 30 26
34 51 50 43 43 39 27 16 13 10 10 14 12 7 4 1 7 7 12 15 20 24 31 37 40 38 33 27 23 54 48 39 34 40 43 40 36 32
47 54 50 45 38 31 21 10 15 5 5 8 12 6 1 4 2 6 15 19 20 23 23 29 34 37 37 43 28 46 48 36 40 41 45 41 35 31
51 53 49 43 40 32 16 5 7 5 3 4 9 11 11 3 5 7 10 13 18 17 17 24 28 36 47 50 57 58 53 49 51 49 46 47 41 37
52 47 47 43 35 22 6 3 6 6 4 5 7 8 15 9 4 1 2 11 12 14 17 20 20 25 38 48 62 62 55 58 58 52 48 48 45 39
44 47 43 34 23 16 11 13 8 9 9 13 9 9 12 9 9 5 6 11 11 15 18 22 19 19 32 47 44 54 63 62 62 59 49 41 44 40
42 42 35 27 20 20 23 17 6 11 19 15 10 10 8 10 12 7 7 10 19 13 12 27 17 21 39 53 58 55 61 62 58 54 53 48 45 40
47 38 35 27 27 29 23 16 3 8 17 14 6 7 6 7 9 11 5 6 12 8 13 31 27 21 48 58 59 59 58 63 53 46 54 52 49 41
42 48 42 33 34 32 26 17 12 8 9 12 13 12 10 10 12 15 10 15 18 19 13 17 24 24 55 60 61 62 61 56 52 51 49 28 24 21
41 40 44 42 41 34 27 21 18 17 18 22 29 20 17 14 11 12 16 16 14 26 30 31 30 45 54 59 70 66 54 50 49 47 31 24 14 9
Wind_Direction_850mb
283 278 277 270 257 253 263 247 235 258 287 280 262 253 250 271 263 256 252 253 255 261 251 247 253 268 282 294 296 291 289 281 264 256 255 251 248 245
285 280 272 267 262 258 257 243 234 261 241 239 239 248 227 253 261 255 255 257 251 239 247 247 256 266 277 282 286 292 289 275 262 253 249 250 245 243
296 288 279 269 260 251 248 250 249 246 241 249 252 252 247 242 252 252 241 241 240 237 236 249 259 267 273 281 287 285 284 270 255 250 248 246 242 236
301 292 279 272 259 255 255 253 251 241 244 247 252 254 243 228 237 233 243 235 235 236 242 249 253 262 273 279 281 278 282 266 250 250 242 238 237 240
299 288 280 272 261 254 250 249 250 251 249 246 237 235 233 221 228 232 229 229 234 239 242 244 249 251 262 264 273 275 278 278 247 247 230 222 240 251
300 286 281 266 257 253 252 252 247 241 238 226 219 221 207 228 213 218 217 220 232 241 244 243 244 248 249 243 259 277 271 265 254 231 225 234 249 244
305 291 273 260 255 251 248 239 232 227 214 215 212 219 218 211 210 213 219 232 239 236 236 242 241 246 247 254 263 266 260 268 252 245 241 239 233 230
295 286 263 253 241 231 228 237 211 199 204 205 202 202 221 218 212 218 227 232 240 237 239 243 250 252 255 259 260 258 262 260 246 240 235 225 216 215
294 272 250 230 210 204 230 195 182 200 203 199 204 218 216 211 222 235 240 243 249 250 248 251 249 256 260 257 253 252 254 258 234 226 215 204 201 197
284 239 230 211 208 213 196 181 191 176 195 204 208 207 205 212 221 230 234 241 247 245 249 253 253 261 262 257 244 246 242 225 206 201 200 193 185 186
1 134 155 168 173 183 198 150 161 162 168 167 174 181 187 203 222 231 236 243 248 249 240 251 262 262 260 248 239 235 224 218 206 188 191 184 182 183
49 91 112 128 135 149 153 162 153 146 151 159 173 194 219 240 250 254 254 250 251 254 245 238 239 242 244 245 237 228 222 215 205 190 188 191 185 184
105 138 146 150 142 144 144 137 134 132 133 154 177 218 244 262 266 269 262 254 245 238 212 194 219 232 232 239 239 216 206 209 193 198 199 188 181 193
252 198 157 152 151 149 141 124 104 85 88 116 97 56 32 213 225 258 270 292 266 249 218 241 249 245 246 243 240 214 194 199 198 191 179 173 179 186
191 166 162 155 152 149 140 97 49 32 90 87 60 22 38 72 209 241 277 274 255 243 239 236 241 249 237 234 223 178 155 155 168 174 169 173 179 184
199 175 168 162 159 156 151 63 18 60 102 86 40 49 62 87 147 249 245 234 235 245 247 231 232 240 246 239 210 181 167 151 166 166 169 169 176 178
180 171 171 175 168 166 165 6 16 58 93 75 33 28 22 14 285 215 233 235 235 247 227 215 222 236 245 234 218 179 171 163 164 165 167 164 165 163
170 171 168 169 168 174 203 333 82 43 2 348 349 26 359 344 355 89 77 182 227 243 251 237 251 246 188 151 167 174 164 160 163 164 170 163 148 147
171 176 177 180 188 219 222 159 106 43 6 335 328 355 329 341 13 349 274 237 257 286 286 232 220 179 143 146 165 166 163 164 161 158 162 166 158 153
190 190 194 201 214 209 175 166 113 25 9 332 285 292 297 308 315 335 332 251 252 280 273 209 207 210 193 178 159 166 170 162 165 163 161 156 150 151
208 212 205 209 210 189 185 182 236 15 25 32 8 297 281 319 340 337 325 291 241 257 270 205 215 224 162 156 159 158 165 168 169 173 163 163 161 160
215 213 214 213 208 201 205 212 253 306 339 348 345 296 297 298 316 334 296 281 259 211 151 229 226 190 167 165 163 163 163 173 173 169 159 168 156 172
204 202 205 210 209 213 218 235 264 287 297 304 326 298 284 293 307 326 314 280 261 215 200 209 218 180 181 174 166 164 162 157 154 153 151 153 151 169